,,Stat5,,Stat1,,Stat2,,Stat3,,Stat4,,Wind1,,Wind1,
time,status,PA1M_AVG,status,PR1M_SUM,status,RH1M_AVG,status,SR1M_AVG,status,TA1M_AVG,status,W1dAve1m,status,W1sAve1m,
2003-01-05, 00:00:00,VALID,920.177,VALID,0,VALID,98.4527,VALID,-0.0679233,VALID,19.6724,VALID,153,VALID,1.07461,
2003-01-05, 00:01:00,VALID,920.172,VALID,0,VALID,98.4705,VALID,-0.101885,VALID,19.6821,VALID,146,VALID,1.58805,
2003-01-05, 00:02:00,VALID,919.649,VALID,0,VALID,98.4171,VALID,-0.101885,VALID,19.7154,VALID,147,VALID,1.32095,
2003-01-05, 00:03:00,VALID,920.137,VALID,0,VALID,98.3751,VALID,-0.101885,VALID,19.7211,VALID,143,VALID,1.11523,
2003-01-05, 00:04:00,VALID,920.136,VALID,0,VALID,98.3917,VALID,-0.0679233,VALID,19.7211,VALID,138,VALID,0.399239,
2003-01-05, 00:05:00,VALID,920.122,VALID,0,VALID,98.3777,VALID,-0.0849042,VALID,19.7176,VALID,125,VALID,0.536529,
2003-01-05, 00:06:00,VALID,920.12,VALID,0,VALID,98.384,VALID,-0.0509425,VALID,19.7179,VALID,137,VALID,0.645312,
2003-01-05, 00:07:00,VALID,920.116,VALID,0,VALID,98.3637,VALID,-0.0679233,VALID,19.7144,VALID,132,VALID,0.889803,
2003-01-05, 00:08:00,VALID,920.103,VALID,0,VALID,98.3459,VALID,0.0169808,VALID,19.6975,VALID,137,VALID,0.940584,
2003-01-05, 00:09:00,VALID,920.078,VALID,0,VALID,98.3421,VALID,0.0169808,VALID,19.6942,VALID,153,VALID,1.00239,
2003-01-05, 00:10:00,VALID,920.072,VALID,0,VALID,98.351,VALID,0.0169808,VALID,19.697,VALID,144,VALID,0.600123,
2003-01-05, 00:11:00,VALID,920.07,VALID,0,VALID,98.3128,VALID,0.0169808,VALID,19.6841,VALID,130,VALID,0.991964,
2003-01-05, 00:12:00,VALID,920.06,VALID,0,VALID,98.2556,VALID,0.0339617,VALID,19.6778,VALID,119,VALID,0.807736,
2003-01-05, 00:13:00,VALID,920.052,VALID,0,VALID,98.2734,VALID,0.0339617,VALID,19.6609,VALID,161,VALID,1.03104,
2003-01-05, 00:14:00,VALID,920.043,VALID,0,VALID,98.2404,VALID,0.0509425,VALID,19.6612,VALID,152,VALID,1.20127,
2003-01-05, 00:15:00,VALID,920.015,VALID,0,VALID,98.2899,VALID,0.0169808,VALID,19.6614,VALID,171,VALID,0.943201,
2003-01-05, 00:16:00,VALID,920.011,VALID,0,VALID,98.2823,VALID,0.0509425,VALID,19.6682,VALID,148,VALID,0.708398,
2003-01-05, 00:17:00,VALID,920.027,VALID,0,VALID,98.3014,VALID,0.0169808,VALID,19.6585,VALID,109,VALID,0.341283,
2003-01-05, 00:18:00,VALID,920.013,VALID,0,VALID,98.3535,VALID,0,VALID,19.6719,VALID,43,VALID,0.697002,
2003-01-05, 00:19:00,VALID,920.01,VALID,0,VALID,98.2187,VALID,0,VALID,19.6488,VALID,80,VALID,0.630068,
2003-01-05, 00:20:00,VALID,920.002,VALID,0,VALID,98.1513,VALID,0,VALID,19.6428,VALID,95,VALID,0.652027,
2003-01-05, 00:21:00,VALID,919.976,VALID,0,VALID,98.075,VALID,0.0169808,VALID,19.6162,VALID,106,VALID,0.607143,
2003-01-05, 00:22:00,VALID,919.968,VALID,0,VALID,98.0305,VALID,0,VALID,19.607,VALID,101,VALID,0.874589,
2003-01-05, 00:23:00,VALID,919.953,VALID,0,VALID,97.9619,VALID,0.0169808,VALID,19.6172,VALID,131,VALID,1.06081,
2003-01-05, 00:24:00,VALID,919.948,VALID,0,VALID,97.8894,VALID,0,VALID,19.6137,VALID,150,VALID,1.20693,
2003-01-05, 00:25:00,VALID,919.94,VALID,0,VALID,97.8245,VALID,0.0339617,VALID,19.61,VALID,145,VALID,1.38178,
2003-01-05, 00:26:00,VALID,919.927,VALID,0,VALID,97.7457,VALID,0.0169808,VALID,19.6167,VALID,142,VALID,1.27039,
2003-01-05, 00:27:00,VALID,919.91,VALID,0,VALID,97.6287,VALID,0.0169808,VALID,19.6428,VALID,141,VALID,1.40358,
2003-01-05, 00:28:00,VALID,919.91,VALID,0,VALID,97.5842,VALID,0.0169808,VALID,19.6356,VALID,150,VALID,0.759457,
2003-01-05, 00:29:00,VALID,919.895,VALID,0,VALID,97.5613,VALID,0.0169808,VALID,19.6522,VALID,154,VALID,1.06359,
2003-01-05, 00:30:00,VALID,919.894,VALID,0,VALID,97.4316,VALID,-0.0169808,VALID,19.6356,VALID,122,VALID,1.02323,
2003-01-05, 00:31:00,VALID,919.906,VALID,0,VALID,97.3668,VALID,0,VALID,19.6493,VALID,138,VALID,1.04389,
2003-01-05, 00:32:00,VALID,919.912,VALID,0,VALID,97.3083,VALID,0,VALID,19.6485,VALID,118,VALID,1.09375,
2003-01-05, 00:33:00,VALID,919.916,VALID,0,VALID,97.1938,VALID,0,VALID,19.6485,VALID,130,VALID,0.846955,
2003-01-05, 00:34:00,VALID,919.909,VALID,0,VALID,97.1201,VALID,0.0339617,VALID,19.6657,VALID,131,VALID,1.10876,
2003-01-05, 00:35:00,VALID,919.9,VALID,0,VALID,97.0832,VALID,0,VALID,19.652,VALID,129,VALID,1.07237,
2003-01-05, 00:36:00,VALID,919.885,VALID,0,VALID,96.8657,VALID,0.0169808,VALID,19.6619,VALID,146,VALID,1.91523,
2003-01-05, 00:37:00,VALID,919.863,VALID,0,VALID,96.8314,VALID,0,VALID,19.6714,VALID,145,VALID,1.48766,
2003-01-05, 00:38:00,VALID,919.861,VALID,0,VALID,96.7068,VALID,0.0169808,VALID,19.6719,VALID,125,VALID,1.5599,
2003-01-05, 00:39:00,VALID,919.861,VALID,0,VALID,96.5224,VALID,0.0339617,VALID,19.6654,VALID,130,VALID,1.42272,
2003-01-05, 00:40:00,VALID,919.85,VALID,0,VALID,96.455,VALID,0.0339617,VALID,19.6679,VALID,146,VALID,1.23546,
2003-01-05, 00:41:00,VALID,919.84,VALID,0,VALID,96.4118,VALID,0.0339617,VALID,19.6711,VALID,136,VALID,1.27648,
2003-01-05, 00:42:00,VALID,919.826,VALID,0,VALID,96.4156,VALID,0,VALID,19.6811,VALID,151,VALID,1.11833,
2003-01-05, 00:43:00,VALID,919.82,VALID,0,VALID,96.3291,VALID,0.0339617,VALID,19.6841,VALID,135,VALID,1.16976,
2003-01-05, 00:44:00,VALID,919.809,VALID,0,VALID,96.3291,VALID,0,VALID,19.6942,VALID,123,VALID,1.15646,
2003-01-05, 00:45:00,VALID,919.802,VALID,0,VALID,96.3469,VALID,0.0169808,VALID,19.6878,VALID,131,VALID,1.17673,
2003-01-05, 00:46:00,VALID,919.799,VALID,0,VALID,96.4855,VALID,0,VALID,19.6786,VALID,129,VALID,0.876953,
2003-01-05, 00:47:00,VALID,919.788,VALID,0,VALID,96.4754,VALID,0.0169808,VALID,19.6682,VALID,123,VALID,1.26583,
2003-01-05, 00:48:00,VALID,919.767,VALID,0,VALID,96.3825,VALID,0,VALID,19.6649,VALID,121,VALID,1.09016,
2003-01-05, 00:49:00,VALID,919.757,VALID,0,VALID,96.5326,VALID,0.0169808,VALID,19.6488,VALID,128,VALID,0.527872,
2003-01-05, 00:50:00,VALID,919.744,VALID,0,VALID,96.5606,VALID,0,VALID,19.6493,VALID,140,VALID,1.26246,
2003-01-05, 00:51:00,VALID,919.717,VALID,0,VALID,96.4652,VALID,0,VALID,19.6388,VALID,140,VALID,1.25156,
2003-01-05, 00:52:00,VALID,919.705,VALID,0,VALID,96.3762,VALID,0.0339617,VALID,19.6428,VALID,112,VALID,1.31209,
2003-01-05, 00:53:00,VALID,919.702,VALID,0,VALID,96.4067,VALID,-0.0849042,VALID,19.6503,VALID,157,VALID,0.852196,
2003-01-05, 00:54:00,VALID,919.686,VALID,0,VALID,96.3202,VALID,-0.0849042,VALID,19.6468,VALID,122,VALID,1.06208,
2003-01-05, 00:55:00,VALID,919.674,VALID,0,VALID,96.3368,VALID,-0.101885,VALID,19.6664,VALID,126,VALID,0.581003,
2003-01-05, 00:56:00,VALID,919.675,VALID,0,VALID,96.1778,VALID,-0.101885,VALID,19.6729,VALID,114,VALID,1.22656,
2003-01-05, 00:57:00,VALID,919.662,VALID,0,VALID,96.0863,VALID,-0.0679233,VALID,19.6828,VALID,95,VALID,1.01583,
2003-01-05, 00:58:00,VALID,919.633,VALID,0,VALID,96.0672,VALID,-0.118866,VALID,19.6985,VALID,122,VALID,1.16057,
2003-01-05, 00:59:00,VALID,919.606,VALID,0,VALID,95.9744,VALID,-0.101885,VALID,19.7054,VALID,122,VALID,1.38325,
2003-01-05, 01:00:00,VALID,919.591,VALID,0,VALID,95.9769,VALID,-0.0679233,VALID,19.7253,VALID,112,VALID,1.11444,
2003-01-05, 01:01:00,VALID,919.571,VALID,0,VALID,95.9896,VALID,-0.101885,VALID,19.7251,VALID,92,VALID,1.08387,
2003-01-05, 01:02:00,VALID,919.561,VALID,0,VALID,96.0786,VALID,-0.101885,VALID,19.728,VALID,101,VALID,0.689844,
2003-01-05, 01:03:00,VALID,919.542,VALID,0,VALID,96.01,VALID,-0.0849042,VALID,19.7283,VALID,93,VALID,1.15385,
2003-01-05, 01:04:00,VALID,919.535,VALID,0,VALID,96.0774,VALID,-0.101885,VALID,19.7213,VALID,111,VALID,1.07854,
2003-01-05, 01:05:00,VALID,919.523,VALID,0,VALID,96.1244,VALID,-0.0679233,VALID,19.7283,VALID,114,VALID,1.17352,
2003-01-05, 01:06:00,VALID,919.514,VALID,0,VALID,96.319,VALID,-0.0849042,VALID,19.7181,VALID,77,VALID,0.786523,
2003-01-05, 01:07:00,VALID,919.507,VALID,0,VALID,96.5084,VALID,-0.0509425,VALID,19.7176,VALID,81,VALID,0.61102,
2003-01-05, 01:08:00,VALID,919.491,VALID,0,VALID,96.3139,VALID,0.0509425,VALID,19.6908,VALID,119,VALID,1.4974,
2003-01-05, 01:09:00,VALID,919.453,VALID,0,VALID,96.352,VALID,0,VALID,19.6843,VALID,122,VALID,0.921875,
2003-01-05, 01:10:00,VALID,919.455,VALID,0,VALID,96.4309,VALID,0.0509425,VALID,19.6841,VALID,104,VALID,0.811849,
2003-01-05, 01:11:00,VALID,919.436,VALID,0,VALID,96.4334,VALID,0.0169808,VALID,19.7044,VALID,104,VALID,0.779731,
2003-01-05, 01:12:00,VALID,919.424,VALID,0,VALID,96.3978,VALID,0.0509425,VALID,19.6977,VALID,76,VALID,1.2237,
2003-01-05, 01:13:00,VALID,919.408,VALID,0,VALID,96.1829,VALID,0.0169808,VALID,19.6908,VALID,120,VALID,1.17905,
2003-01-05, 01:14:00,VALID,919.412,VALID,0,VALID,96.0939,VALID,0.0679233,VALID,19.7005,VALID,103,VALID,0.810033,
2003-01-05, 01:15:00,VALID,919.409,VALID,0,VALID,95.7887,VALID,0,VALID,19.7139,VALID,144,VALID,1.40963,
2003-01-05, 01:16:00,VALID,919.404,VALID,0,VALID,95.7289,VALID,0,VALID,19.733,VALID,63,VALID,0.999609,
2003-01-05, 01:17:00,VALID,919.402,VALID,0,VALID,95.4619,VALID,0.0509425,VALID,19.7715,VALID,109,VALID,1.32771,
2003-01-05, 01:18:00,VALID,919.417,VALID,0,VALID,95.2839,VALID,0.0169808,VALID,19.7882,VALID,138,VALID,1.23374,
2003-01-05, 01:19:00,VALID,919.413,VALID,0,VALID,95.4098,VALID,0.0169808,VALID,19.7971,VALID,123,VALID,0.965372,
2003-01-05, 01:20:00,VALID,919.388,VALID,0,VALID,95.3157,VALID,0.0339617,VALID,19.7969,VALID,139,VALID,1.00063,
2003-01-05, 01:21:00,VALID,919.383,VALID,0,VALID,95.2521,VALID,0.0169808,VALID,19.817,VALID,111,VALID,1.24821,
2003-01-05, 01:22:00,VALID,919.355,VALID,0,VALID,95.3513,VALID,0.0169808,VALID,19.8108,VALID,94,VALID,0.763158,
2003-01-05, 01:23:00,VALID,919.336,VALID,0,VALID,95.2534,VALID,-0.0679233,VALID,19.8215,VALID,109,VALID,0.947846,
2003-01-05, 01:24:00,VALID,919.31,VALID,0,VALID,95.4555,VALID,-0.0679233,VALID,19.8252,VALID,126,VALID,0.687078,
2003-01-05, 01:25:00,VALID,919.277,VALID,0,VALID,95.3347,VALID,-0.101885,VALID,19.8056,VALID,114,VALID,1.15234,
2003-01-05, 01:26:00,VALID,919.232,VALID,0,VALID,95.3195,VALID,-0.0679233,VALID,19.783,VALID,112,VALID,1.16635,
2003-01-05, 01:27:00,VALID,919.243,VALID,0,VALID,95.4835,VALID,-0.0849042,VALID,19.7892,VALID,100,VALID,1.10588,
2003-01-05, 01:28:00,VALID,919.213,VALID,0,VALID,95.4683,VALID,-0.0849042,VALID,19.7797,VALID,122,VALID,1.12747,
2003-01-05, 01:29:00,VALID,919.204,VALID,0,VALID,95.617,VALID,-0.0849042,VALID,19.7733,VALID,120,VALID,1.05924,
2003-01-05, 01:30:00,VALID,919.189,VALID,0,VALID,95.4276,VALID,-0.101885,VALID,19.7599,VALID,142,VALID,1.18159,
2003-01-05, 01:31:00,VALID,919.183,VALID,0,VALID,95.6971,VALID,-0.0849042,VALID,19.7994,VALID,107,VALID,0.54136,
2003-01-05, 01:32:00,VALID,919.188,VALID,0,VALID,95.4848,VALID,-0.0849042,VALID,19.8021,VALID,117,VALID,1.06523,
2003-01-05, 01:33:00,VALID,919.208,VALID,0,VALID,95.186,VALID,-0.0849042,VALID,19.7986,VALID,94,VALID,1.08404,
2003-01-05, 01:34:00,VALID,919.21,VALID,0,VALID,95.2724,VALID,-0.0509425,VALID,19.8118,VALID,108,VALID,0.878084,
2003-01-05, 01:35:00,VALID,919.239,VALID,0,VALID,95.2966,VALID,-0.0509425,VALID,19.825,VALID,98,VALID,0.796053,
2003-01-05, 01:36:00,VALID,919.244,VALID,0,VALID,94.7879,VALID,-0.101885,VALID,19.8252,VALID,132,VALID,2.22363,
2003-01-05, 01:37:00,VALID,919.243,VALID,0,VALID,94.671,VALID,-0.101885,VALID,19.8411,VALID,125,VALID,1.28845,
2003-01-05, 01:38:00,VALID,919.224,VALID,0,VALID,94.6137,VALID,-0.0679233,VALID,19.8603,VALID,125,VALID,1.18446,
2003-01-05, 01:39:00,VALID,919.214,VALID,0,VALID,94.6595,VALID,-0.101885,VALID,19.8832,VALID,131,VALID,1.45397,
2003-01-05, 01:40:00,VALID,919.189,VALID,0,VALID,94.6544,VALID,-0.101885,VALID,19.8899,VALID,129,VALID,1.43251,
2003-01-05, 01:41:00,VALID,919.173,VALID,0,VALID,94.9342,VALID,-0.0849042,VALID,19.8901,VALID,133,VALID,0.893012,
2003-01-05, 01:42:00,VALID,919.158,VALID,0,VALID,95.191,VALID,-0.101885,VALID,19.8799,VALID,138,VALID,0.757622,
2003-01-05, 01:43:00,VALID,919.16,VALID,0,VALID,94.9761,VALID,-0.0849042,VALID,19.8737,VALID,147,VALID,1.58995,
2003-01-05, 01:44:00,VALID,919.153,VALID,0,VALID,95.041,VALID,-0.101885,VALID,19.8576,VALID,133,VALID,0.763775,
2003-01-05, 01:45:00,VALID,919.165,VALID,0,VALID,95.2343,VALID,-0.118866,VALID,19.8737,VALID,134,VALID,1.01541,
2003-01-05, 01:46:00,VALID,919.152,VALID,0,VALID,95.3589,VALID,-0.101885,VALID,19.8541,VALID,140,VALID,0.883984,
2003-01-05, 01:47:00,VALID,919.141,VALID,0,VALID,95.0232,VALID,-0.0509425,VALID,19.8377,VALID,144,VALID,1.31147,
2003-01-05, 01:48:00,VALID,919.123,VALID,0,VALID,94.952,VALID,-0.0509425,VALID,19.8344,VALID,109,VALID,1.10642,
2003-01-05, 01:49:00,VALID,919.105,VALID,0,VALID,94.8795,VALID,-0.101885,VALID,19.8349,VALID,133,VALID,0.927998,
2003-01-05, 01:50:00,VALID,919.109,VALID,0,VALID,94.6913,VALID,-0.0849042,VALID,19.8479,VALID,127,VALID,1.2519,
2003-01-05, 01:51:00,VALID,919.08,VALID,0,VALID,94.6799,VALID,-0.0849042,VALID,19.8538,VALID,143,VALID,1.28371,
2003-01-05, 01:52:00,VALID,919.067,VALID,0,VALID,94.5273,VALID,-0.0679233,VALID,19.8571,VALID,138,VALID,1.36842,
2003-01-05, 01:53:00,VALID,919.06,VALID,0,VALID,94.6328,VALID,-0.0849042,VALID,19.8665,VALID,129,VALID,1.09797,
2003-01-05, 01:54:00,VALID,919.039,VALID,0,VALID,94.4243,VALID,-0.0679233,VALID,19.8705,VALID,139,VALID,1.22297,
2003-01-05, 01:55:00,VALID,919.041,VALID,0,VALID,94.3785,VALID,-0.0849042,VALID,19.8603,VALID,124,VALID,1.02775,
2003-01-05, 01:56:00,VALID,919.041,VALID,0,VALID,94.5171,VALID,-0.0849042,VALID,19.8441,VALID,123,VALID,1.03239,
2003-01-05, 01:57:00,VALID,919.03,VALID,0,VALID,94.5921,VALID,-0.0679233,VALID,19.8307,VALID,112,VALID,1.05839,
2003-01-05, 01:58:00,VALID,919.039,VALID,0,VALID,94.3556,VALID,-0.0849042,VALID,19.8148,VALID,119,VALID,1.63692,
2003-01-05, 01:59:00,VALID,919.023,VALID,0,VALID,94.0237,VALID,-0.0849042,VALID,19.7952,VALID,136,VALID,1.6556,
2003-01-05, 02:00:00,VALID,919.017,VALID,0,VALID,94.1394,VALID,-0.0339617,VALID,19.8153,VALID,96,VALID,1.33425,
2003-01-05, 02:01:00,VALID,919.01,VALID,0,VALID,94.175,VALID,-0.0849042,VALID,19.815,VALID,69,VALID,1.67601,
2003-01-05, 02:02:00,VALID,918.99,VALID,0,VALID,93.9919,VALID,-0.0849042,VALID,19.8086,VALID,87,VALID,2.02656,
2003-01-05, 02:03:00,VALID,918.989,VALID,0,VALID,93.8991,VALID,-0.0849042,VALID,19.7855,VALID,100,VALID,1.90605,
2003-01-05, 02:04:00,VALID,918.98,VALID,0,VALID,94.0199,VALID,-0.0849042,VALID,19.7924,VALID,128,VALID,1.42167,
2003-01-05, 02:05:00,VALID,918.986,VALID,0,VALID,94.0593,VALID,-0.0509425,VALID,19.7927,VALID,101,VALID,1.36513,
2003-01-05, 02:06:00,VALID,918.969,VALID,0,VALID,93.9652,VALID,-0.0849042,VALID,19.776,VALID,111,VALID,1.81562,
2003-01-05, 02:07:00,VALID,918.96,VALID,0,VALID,93.9296,VALID,-0.0679233,VALID,19.7825,VALID,120,VALID,1.93688,
2003-01-05, 02:08:00,VALID,918.96,VALID,0,VALID,94.2056,VALID,-0.0339617,VALID,19.7725,VALID,90,VALID,1.06836,
2003-01-05, 02:09:00,VALID,918.958,VALID,0,VALID,94.3823,VALID,-0.0339617,VALID,19.7658,VALID,84,VALID,1.42842,
2003-01-05, 02:10:00,VALID,918.967,VALID,0,VALID,94.4929,VALID,0,VALID,19.7303,VALID,114,VALID,1.32726,
2003-01-05, 02:11:00,VALID,918.962,VALID,0,VALID,94.4891,VALID,0,VALID,19.7015,VALID,120,VALID,1.61024,
2003-01-05, 02:12:00,VALID,918.951,VALID,0,VALID,94.4522,VALID,-0.0679233,VALID,19.7044,VALID,131,VALID,1.69264,
2003-01-05, 02:13:00,VALID,918.96,VALID,0,VALID,94.1699,VALID,-0.0679233,VALID,19.6945,VALID,132,VALID,1.78273,
2003-01-05, 02:14:00,VALID,918.972,VALID,0,VALID,94.0021,VALID,-0.0339617,VALID,19.7111,VALID,121,VALID,1.78618,
2003-01-05, 02:15:00,VALID,918.98,VALID,0,VALID,94.0199,VALID,-0.0339617,VALID,19.7402,VALID,91,VALID,1.02386,
2003-01-05, 02:16:00,VALID,918.988,VALID,0,VALID,93.6562,VALID,-0.0509425,VALID,19.7464,VALID,104,VALID,1.17754,
2003-01-05, 02:17:00,VALID,918.995,VALID,0,VALID,93.4604,VALID,-0.0679233,VALID,19.7723,VALID,153,VALID,1.39926,
2003-01-05, 02:18:00,VALID,918.994,VALID,0,VALID,93.2379,VALID,-0.0679233,VALID,19.8083,VALID,134,VALID,1.8334,
2003-01-05, 02:19:00,VALID,918.992,VALID,0,VALID,92.8983,VALID,-0.0679233,VALID,19.8277,VALID,71,VALID,1.90878,
2003-01-05, 02:20:00,VALID,918.962,VALID,0,VALID,92.5423,VALID,0,VALID,19.8662,VALID,66,VALID,1.62099,
2003-01-05, 02:21:00,VALID,918.958,VALID,0,VALID,92.5639,VALID,-0.0169808,VALID,19.9015,VALID,86,VALID,1.04397,
2003-01-05, 02:22:00,VALID,918.947,VALID,0,VALID,92.8297,VALID,-0.0509425,VALID,19.9212,VALID,104,VALID,1.11945,
2003-01-05, 02:23:00,VALID,918.959,VALID,0,VALID,93.0128,VALID,-0.0509425,VALID,19.8886,VALID,117,VALID,0.936444,
2003-01-05, 02:24:00,VALID,918.962,VALID,0,VALID,93.0293,VALID,-0.0509425,VALID,19.873,VALID,111,VALID,1.32179,
2003-01-05, 02:25:00,VALID,918.948,VALID,0,VALID,92.3999,VALID,-0.0509425,VALID,19.8503,VALID,103,VALID,1.64576,
2003-01-05, 02:26:00,VALID,918.931,VALID,0,VALID,92.2956,VALID,-0.0339617,VALID,19.866,VALID,132,VALID,0.741235,
2003-01-05, 02:27:00,VALID,918.921,VALID,0,VALID,92.3427,VALID,-0.0679233,VALID,19.9115,VALID,122,VALID,0.805921,
2003-01-05, 02:28:00,VALID,918.896,VALID,0,VALID,92.4215,VALID,-0.0339617,VALID,19.9276,VALID,137,VALID,0.874178,
2003-01-05, 02:29:00,VALID,918.875,VALID,0,VALID,92.5436,VALID,-0.0509425,VALID,19.9244,VALID,104,VALID,1.14952,
2003-01-05, 02:30:00,VALID,918.859,VALID,0,VALID,92.6516,VALID,-0.0679233,VALID,19.908,VALID,111,VALID,0.966427,
2003-01-05, 02:31:00,VALID,918.837,VALID,0,VALID,92.5932,VALID,-0.101885,VALID,19.8958,VALID,150,VALID,1.42532,
2003-01-05, 02:32:00,VALID,918.828,VALID,0,VALID,92.5296,VALID,-0.0679233,VALID,19.8665,VALID,116,VALID,1.59121,
2003-01-05, 02:33:00,VALID,918.818,VALID,0,VALID,92.7496,VALID,-0.0679233,VALID,19.8541,VALID,91,VALID,1.06931,
2003-01-05, 02:34:00,VALID,918.807,VALID,0,VALID,92.8437,VALID,-0.0509425,VALID,19.8307,VALID,94,VALID,1.05962,
2003-01-05, 02:35:00,VALID,918.812,VALID,0,VALID,92.6122,VALID,-0.0339617,VALID,19.8049,VALID,116,VALID,1.20641,
2003-01-05, 02:36:00,VALID,918.808,VALID,0,VALID,92.3388,VALID,-0.0169808,VALID,19.8078,VALID,103,VALID,1.63887,
2003-01-05, 02:37:00,VALID,918.799,VALID,0,VALID,92.1977,VALID,0,VALID,19.8213,VALID,130,VALID,2.09704,
2003-01-05, 02:38:00,VALID,918.772,VALID,0,VALID,92.2409,VALID,-0.0509425,VALID,19.8208,VALID,114,VALID,1.09375,
2003-01-05, 02:39:00,VALID,918.778,VALID,0,VALID,92.2816,VALID,-0.0509425,VALID,19.8245,VALID,114,VALID,1.61761,
2003-01-05, 02:40:00,VALID,918.771,VALID,0,VALID,92.0578,VALID,-0.0679233,VALID,19.8049,VALID,127,VALID,1.62066,
2003-01-05, 02:41:00,VALID,918.744,VALID,0,VALID,92.3477,VALID,-0.0509425,VALID,19.821,VALID,83,VALID,0.900391,
2003-01-05, 02:42:00,VALID,918.751,VALID,0,VALID,92.2333,VALID,-0.0679233,VALID,19.8178,VALID,102,VALID,1.01429,
2003-01-05, 02:43:00,VALID,918.737,VALID,0,VALID,91.998,VALID,-0.0339617,VALID,19.8019,VALID,113,VALID,1.28083,
2003-01-05, 02:44:00,VALID,918.729,VALID,0,VALID,91.8683,VALID,-0.0849042,VALID,19.7984,VALID,91,VALID,1.13651,
2003-01-05, 02:45:00,VALID,918.724,VALID,0,VALID,91.6776,VALID,-0.0849042,VALID,19.8116,VALID,133,VALID,1.49113,
2003-01-05, 02:46:00,VALID,918.728,VALID,0,VALID,91.6547,VALID,-0.0849042,VALID,19.8347,VALID,105,VALID,1.59395,
2003-01-05, 02:47:00,VALID,918.71,VALID,0,VALID,91.5352,VALID,-0.0509425,VALID,19.8277,VALID,107,VALID,1.7023,
2003-01-05, 02:48:00,VALID,918.682,VALID,0,VALID,91.7679,VALID,-0.0679233,VALID,19.8503,VALID,89,VALID,1.37732,
2003-01-05, 02:49:00,VALID,918.655,VALID,0,VALID,91.923,VALID,-0.0339617,VALID,19.8533,VALID,127,VALID,0.841216,
2003-01-05, 02:50:00,VALID,918.643,VALID,0,VALID,92.0464,VALID,-0.0679233,VALID,19.8379,VALID,116,VALID,1.20671,
2003-01-05, 02:51:00,VALID,918.64,VALID,0,VALID,92.1506,VALID,-0.101885,VALID,19.8086,VALID,126,VALID,0.972321,
2003-01-05, 02:52:00,VALID,918.647,VALID,0,VALID,92.0387,VALID,-0.0679233,VALID,19.7628,VALID,126,VALID,1.49979,
2003-01-05, 02:53:00,VALID,918.657,VALID,0,VALID,91.9802,VALID,0.0339617,VALID,19.7517,VALID,92,VALID,1.49873,
2003-01-05, 02:54:00,VALID,918.681,VALID,0,VALID,91.8493,VALID,0.0849042,VALID,19.771,VALID,98,VALID,1.63725,
2003-01-05, 02:55:00,VALID,918.678,VALID,0,VALID,91.8849,VALID,0.0339617,VALID,19.7551,VALID,97,VALID,1.20313,
2003-01-05, 02:56:00,VALID,918.687,VALID,0,VALID,91.8811,VALID,0.0849042,VALID,19.7551,VALID,102,VALID,1.48457,
2003-01-05, 02:57:00,VALID,918.673,VALID,0,VALID,91.291,VALID,0.0679233,VALID,19.7517,VALID,115,VALID,1.32977,
2003-01-05, 02:58:00,VALID,918.656,VALID,0,VALID,91.394,VALID,0.0509425,VALID,19.7872,VALID,94,VALID,1.37603,
2003-01-05, 02:59:00,VALID,918.63,VALID,0,VALID,91.4195,VALID,0.0339617,VALID,19.8006,VALID,121,VALID,0.945964,
2003-01-05, 03:00:00,VALID,918.609,VALID,0,VALID,91.4169,VALID,0.0679233,VALID,19.7937,VALID,103,VALID,1.22403,
2003-01-05, 03:01:00,VALID,918.572,VALID,0,VALID,91.703,VALID,0.0339617,VALID,19.8205,VALID,88,VALID,1.11489,
2003-01-05, 03:02:00,VALID,918.573,VALID,0,VALID,91.4563,VALID,0.0679233,VALID,19.7912,VALID,117,VALID,1.38164,
2003-01-05, 03:03:00,VALID,918.569,VALID,0,VALID,91.5326,VALID,0.0339617,VALID,19.7651,VALID,128,VALID,0.711739,
2003-01-05, 03:04:00,VALID,918.567,VALID,0,VALID,91.5543,VALID,0.0509425,VALID,19.7522,VALID,112,VALID,0.843956,
2003-01-05, 03:05:00,VALID,918.574,VALID,0,VALID,91.7539,VALID,0.0509425,VALID,19.7522,VALID,120,VALID,0.868215,
2003-01-05, 03:06:00,VALID,918.591,VALID,0,VALID,91.2669,VALID,0,VALID,19.736,VALID,98,VALID,1.22598,
2003-01-05, 03:07:00,VALID,918.594,VALID,0,VALID,90.9744,VALID,0.0169808,VALID,19.7427,VALID,89,VALID,1.56661,
2003-01-05, 03:08:00,VALID,918.592,VALID,0,VALID,90.743,VALID,0,VALID,19.7519,VALID,87,VALID,1.43229,
2003-01-05, 03:09:00,VALID,918.599,VALID,0,VALID,90.5204,VALID,0,VALID,19.7748,VALID,108,VALID,1.67568,
2003-01-05, 03:10:00,VALID,918.592,VALID,0,VALID,89.5502,VALID,0.0169808,VALID,19.8073,VALID,129,VALID,1.96853,
2003-01-05, 03:11:00,VALID,918.593,VALID,0,VALID,89.7486,VALID,0,VALID,19.8722,VALID,120,VALID,1.14214,
2003-01-05, 03:12:00,VALID,918.592,VALID,0,VALID,89.6723,VALID,0.0169808,VALID,19.8911,VALID,119,VALID,1.00648,
2003-01-05, 03:13:00,VALID,918.591,VALID,0,VALID,89.9775,VALID,0,VALID,19.8876,VALID,120,VALID,1.49493,
2003-01-05, 03:14:00,VALID,918.595,VALID,0,VALID,89.2921,VALID,0.0339617,VALID,19.8685,VALID,137,VALID,1.80201,
2003-01-05, 03:15:00,VALID,918.585,VALID,0,VALID,89.1865,VALID,0,VALID,19.8978,VALID,135,VALID,1.53104,
2003-01-05, 03:16:00,VALID,918.58,VALID,0,VALID,89.3175,VALID,0.0169808,VALID,19.9341,VALID,128,VALID,1.16699,
2003-01-05, 03:17:00,VALID,918.586,VALID,0,VALID,89.5578,VALID,0.0169808,VALID,19.9169,VALID,104,VALID,1.26686,
2003-01-05, 03:18:00,VALID,918.56,VALID,0,VALID,89.6112,VALID,-0.0169808,VALID,19.8946,VALID,110,VALID,1.17082,
2003-01-05, 03:19:00,VALID,918.557,VALID,0,VALID,89.8719,VALID,0,VALID,19.8625,VALID,108,VALID,0.946368,
2003-01-05, 03:20:00,VALID,918.547,VALID,0,VALID,89.9024,VALID,0.0509425,VALID,19.8195,VALID,102,VALID,0.855363,
2003-01-05, 03:21:00,VALID,918.538,VALID,0,VALID,90.1008,VALID,0,VALID,19.8036,VALID,94,VALID,0.936607,
2003-01-05, 03:22:00,VALID,918.544,VALID,0,VALID,90.4124,VALID,0.0169808,VALID,19.8173,VALID,80,VALID,1.17496,
2003-01-05, 03:23:00,VALID,918.544,VALID,0,VALID,90.3539,VALID,0,VALID,19.7845,VALID,121,VALID,0.928843,
2003-01-05, 03:24:00,VALID,918.549,VALID,0,VALID,90.0639,VALID,0,VALID,19.7621,VALID,124,VALID,1.08742,
2003-01-05, 03:25:00,VALID,918.563,VALID,0,VALID,90.3895,VALID,0.0169808,VALID,19.7487,VALID,111,VALID,0.839844,
2003-01-05, 03:26:00,VALID,918.574,VALID,0,VALID,90.3462,VALID,0.0169808,VALID,19.7358,VALID,107,VALID,1.11738,
2003-01-05, 03:27:00,VALID,918.575,VALID,0,VALID,89.849,VALID,0.0339617,VALID,19.7295,VALID,110,VALID,1.51131,
2003-01-05, 03:28:00,VALID,918.573,VALID,0,VALID,90.2814,VALID,0,VALID,19.7358,VALID,102,VALID,1.03475,
2003-01-05, 03:29:00,VALID,918.57,VALID,0,VALID,90.2445,VALID,0.0339617,VALID,19.7263,VALID,111,VALID,1.02626,
2003-01-05, 03:30:00,VALID,918.568,VALID,0,VALID,90.556,VALID,0,VALID,19.7136,VALID,118,VALID,0.932221,
2003-01-05, 03:31:00,VALID,918.579,VALID,0,VALID,90.3984,VALID,0,VALID,19.6808,VALID,107,VALID,1.51677,
2003-01-05, 03:32:00,VALID,918.591,VALID,0,VALID,90.2242,VALID,0,VALID,19.6612,VALID,113,VALID,1.25586,